Regional Weather Roundup
Issued by NWS

Home | Current Version | Previous Version | Graphics & Text | Print | Product List | Glossary Off
Versions: 1 2 3 4 5 6 7 8 9 10 11 12 13 14 15 16 17 18 19 20 21 22 23 24 25 26 27 28 29 30 31 32 33 34 35 36 37 38 39 40 41 42 43 44 45 46 47 48 49 50

000
ASUS43 KDMX 201107
RWRIA

WEATHER ROUNDUP FOR IOWA
NATIONAL WEATHER SERVICE DES MOINES IA
600 AM CDT SAT SEP 20 2014

NOTE: "FAIR" INDICATES FEW OR NO CLOUDS BELOW 12,000 FEET WITH NO
SIGNIFICANT WEATHER AND/OR OBSTRUCTIONS TO VISIBILITY.

* - THESE STATIONS ARE NOT NWS STATIONS...THUS NOT UNDER NWS
QUALITY CONTROL.  THEY ALSO DO NOT REPORT WEATHER SUCH
AS PRECIPITATION OR FOG.

IAZ001>003-012>014-020>022-031>034-043>046-201200-
   NORTHWEST IOWA

CITY           SKY/WX    TMP DP  RH WIND       PRES   REMARKS
CARROLL *      CLOUDY    66  63  88 S9        29.84S
CHEROKEE *     MOCLDY    64  64 100 CALM      29.85R
DENISON *      CLOUDY    66  66 100 S8G18     29.83R
LE MARS *        N/A     64  63  94 CALM      29.85S
ORANGE CITY *  MOCLDY    64  61  88 CALM      29.84S
SHELDON *      CLOUDY    63  61  94 CALM      29.83R
SIOUX CITY     MOCLDY    62  61  96 CALM      29.85R
SPENCER        CLOUDY    65  63  93 W5        29.84R
STORM LAKE *   PTCLDY    64  64 100 W8        29.83R
$$

IAZ055>058-069>071-079>083-090>094-201200-
   SOUTHWEST IOWA

CITY           SKY/WX    TMP DP  RH WIND       PRES   REMARKS
ATLANTIC *     DRIZZLE   68  68 100 S9        29.89F
AUDUBON *      LGT RAIN  66  61  82 S10       29.89F
CLARINDA *     CLOUDY    68  68 100 CALM      29.96R FOG
COUNCIL BLFS * CLOUDY    68  68 100 S8G15     29.88R FOG
CRESTON *      CLOUDY    68  68 100 S5        29.95R FOG
HARLAN  *      CLOUDY    66  66 100 SE6       29.91R
LAMONI         CLOUDY    68  66  93 N9        29.97R
RED OAK *      HVY RAIN  70  68  94 VRB6G13   29.92R
SHENANDOAH *   CLOUDY    68  68 100 NE5       29.96R FOG
$$

IAZ047>049-059>061-072>074-084-201200-
   CENTRAL IOWA

CITY           SKY/WX    TMP DP  RH WIND       PRES   REMARKS
AMES           CLOUDY    65  65 100 SW6       29.86R
ANKENY *       DRIZZLE   66  66 100 S13       29.86F
CHARITON *     CLOUDY    68  66  94 S5        29.94S
DES MOINES     LGT RAIN  69  65  86 S10       29.90F
GRINNELL*      LGT RAIN  66  64  94 S7        29.90F
KNOXVILLE *    CLOUDY    68  66  94 S6        29.91F
MARSHALLTOWN   CLOUDY    67  63  87 SW7G18    29.83F
PELLA *        CLOUDY    68  66  94 S6        29.93F FOG
PERRY *        DRIZZLE   66  63  88 SW14G20   29.86R
$$

IAZ004>006-015-016-023>025-035-036-201200-
   NORTH CENTRAL IOWA

CITY           SKY/WX    TMP DP  RH WIND       PRES   REMARKS
ALGONA *       MOCLDY    64  64 100 S7        29.83R
CLARION *        N/A     64  64 100 S9        29.83S
ESTHERVILLE    CLOUDY    63  62  97 W5        29.82R
FORT DODGE *   CLOUDY    64  63  94 S8        29.83S
MASON CITY     CLOUDY    65  63  93 SW16      29.82S
FOREST CITY *  CLOUDY    64  64 100 SW9       29.82R
IOWA FALLS *     N/A     64  63  94 S6        29.86R
$$

IAZ007>011-017>019-026>030-037>042-050>054-066-201200-
   NORTHEAST IOWA

CITY           SKY/WX    TMP DP  RH WIND       PRES   REMARKS
CEDAR RAPIDS   RAIN      65  65 100 SW6       29.89S FOG
CHARLES CITY * MOCLDY    64  61  88 SW10      29.82S
CLINTON *      CLOUDY    63  57  82 SW5       29.93F
DECORAH *      CLEAR     64  63  94 SW8       29.80R
DUBUQUE        CLOUDY    62  61  96 S13       29.86F FOG
MONTICELLO *   MOCLDY    66  64  94 SW10      29.89R
OELWEIN *      CLOUDY    66  63  88 S21G36    29.81F
WATERLOO       CLOUDY    67  63  87 SW9       29.81F
$$

IAZ064-065-067-068-078-201200-
   EAST CENTRAL IOWA

CITY           SKY/WX    TMP DP  RH WIND       PRES   REMARKS
DAVENPORT      CLOUDY    64  60  87 SW8       29.92S
IOWA CITY      TSTM      64  63  96 S6        29.92R
MT. PLEASANT * CLOUDY    64  61  88 CALM      29.96R
MUSCATINE *    CLOUDY    64  61  88 S7        29.91F
QUAD CITIES    CLOUDY    64  59  83 SW7       29.91F
$$

IAZ062-063-075>077-085>089-095>099-201200-
   SOUTHEAST IOWA

CITY           SKY/WX    TMP DP  RH WIND       PRES   REMARKS
BURLINGTON     MOCLDY    64  61  90 W3        29.95R
FAIRFIELD *    CLOUDY    64  63  94 S3        29.95F
FORT MADISON * PTCLDY    66  63  88 W5        29.96R
KEOKUK *       CLEAR     63  61  94 SW8       29.93R
OSKALOOSA *    RAIN      66  64  94 S5        29.93F
CENTERVILLE *  CLOUDY    66  66 100 CALM      29.97R
OTTUMWA        CLOUDY    65  64  97 S6        29.94S
WASHINGTON *   MOCLDY    64  64 100 S5        29.93F
$$

ABBREVIATIONS USED IN REMARKS
   TC - TEMPERATURES IN CELSIUS
  WCI - WIND CHILL INDEX
   HX - HEAT INDEX
  VSB - VISIBILITY
$$




USA.gov is the U.S. government's official web portal to all federal, state and local government web resources and services.